1st Responders/1st Detectors/Storm Spotters Weather Summary for Boyd County, KY

Forecast Maps


Reg. NEXRAD Animation


National Fire Danger: Day 1 & 2 Map

Current NWS Watch/Warnings

SPC Convective Day 1 Outlook


Day 2 Outlook

(Click images to enlarge|Page will refresh every 5 minutes)
UK Ag. Weather Center Desktop Severe Weather Service[HERE]
Boyd County, KY Hazardous Weather Outlook Webcast
(9 AM to 9 PM Mon-Fri)
[Fast]
[Dial-up]


UKAWC 1st Detectors/1st Responders Precision Weather Forecast For BOYD County, Kentucky
(based on the NWS County Digital Forecast)

ISSUED AT 19:00 UTC ON SUNDAY OCT 22 2017
DAY SUNDAY
EDT 3HR 4P 5P 6P 7P
MAX/MIN -- -- -- 79°
TEMP 79° 77° 76° 72°
SKY COVER 22% 26% 30% 34%
Clouds
DEW PT 47° 47° 47° 49°
RH 33% 34% 37% 43%
POP 12HR -- -- -- --
RAIN/SNOW (liq.equ) -- -- -- --
SNOWFALL -- -- -- --
WIND SPEED(MPH) 6 6 5 2
WIND Gust(MPH) 10 10 8 6
WIND DIR SE SE SE SE
DEW -- -- -- --
HeatIndex 79 77 76 72
Rain Showers -- -- -- --
WIND CHILL -- -- -- --
SPRAY COND
DRY COND
LIVESTOCK COLDSTRESS
LIVESTOCK HEATSTRESS 71.56 70.39 70.04 67.86



DAY MONDAY TUESDAY WEDNESDAY THURSDAY FRIDAY SATURDAY
EDT 6HR 8P 9P 10P 11P MIDN 1A 2A 3A 4A 5A 6A 7A 8A 9A 10A 11A NOON 1P 2P 3P 4P 5P 6P 7P 8P 9P 10P 11P MIDN 1A 2A 3A 5A 8A 11A 2P 5P 8P 2A 8A 2P 8P 2A 8A 2P 8P 2A 8A 2P 8P 2A 8A 2P 8P
MAX/MIN -- -- -- -- -- -- -- -- -- -- -- -- 63° -- -- -- -- -- -- -- -- -- -- 70° -- -- -- -- -- -- -- -- -- 49° -- -- 61° -- -- 40° 52° -- -- 36° 61° -- -- 43° 68° -- -- 43° 61° --
TEMP 68° 67° 67° 65° 65° 63° 63° 63° 63° 63° 58° 58° 58° 61° 65° 67° 67° 68° 68° 70° 70° 68° 67° 65° 63° 61° 61° 59° 58° 56° 56° 54° 54° 49° 54° 59° 58° 49° 43° 40° 52° 45° 43° 38° 59° 52° 47° 45° 67° 58° 47° 45° 61° 54°
SKY COVER 36% 37% 40% 44% 47% 50% 51% 61% 80% 90% 90% 92% 100% 100% 100% 100% 100% 100% 100% 100% 100% 100% 100% 71% 74% 96% 94% 94% 90% 82% 78% 76% 67% 75% 62% 52% 65% 51% 42% 64% 62% 65% 40% 18% 15% 7% 14% 18% 30% 40% 60% 71% 66% 64%
Clouds
DEW PT 49° 49° 49° 49° 50° 50° 50° 52° 52° 52° 54° 54° 56° 56° 58° 59° 61° 61° 63° 63° 63° 63° 61° 61° 59° 58° 58° 56° 54° 54° 52° 50° 49° 47° 47° 45° 41° 40° 38° 36° 36° 36° 36° 34° 38° 40° 40° 40° 47° 49° 45° 43° 40° 40°
RH 48% 52% 54% 56% 60% 62% 62% 65% 65% 67% 86% 89% 90% 83% 81% 78% 78% 77% 80% 78% 78% 81% 81% 83% 87% 89% 90% 89% 86% 89% 86% 86% 85% 96% 77% 57% 53% 71% 78% 88% 55% 70% 79% 88% 45% 60% 76% 82% 46% 69% 89% 92% 47% 58%
POP 12HR 0% -- -- -- -- -- -- -- -- -- -- -- 15% -- -- -- -- -- -- -- -- -- -- -- 100% -- -- -- -- -- -- -- -- 77% -- -- -- 27% -- 11% -- 18% -- 17% -- 0% -- 0% -- 21% -- 28% -- 37%
RAIN/SNOW (liq.equ) 0.00in -- -- -- -- -- 0.00in -- -- -- -- -- 0.00in -- -- -- -- -- 0.42in -- -- -- -- -- 0.60in -- -- -- -- -- 0.36in -- -- 0.11in -- 0.00in -- 0.00in -- -- -- -- -- -- -- -- -- -- -- -- -- -- -- --
SNOWFALL 0in -- -- -- -- -- 0in -- -- -- -- -- 0in -- -- -- -- -- 0in -- -- -- -- -- 0in -- -- -- -- -- 0in -- -- 0in -- 0in -- 0in -- -- -- -- -- -- -- -- -- -- -- -- -- -- -- --
WIND SPEED(MPH) 1 1 2 2 5 5 6 6 6 6 7 7 7 7 7 7 7 8 8 8 9 9 8 7 7 7 6 6 7 7 7 7 6 6 7 7 7 7 5 6 7 6 2 5 5 2 5 5 7 5 6 6 6 5
WIND DIR SE SE SE SE SE SE SE SE SE SE SE SE SE SE SE SE SE SE SE SE S S S SW SW SW SW SW SW W W W W SW SW W W W SW SW W W SW SW SW SE S S SW S S SW W W
HeatIndex 68 67 67 65 65 63 63 63 63 63 58 58 58 61 65 67 67 68 68 70 70 68 67 65 63 61 61 59 58 56 56 54 54 49 54 59 58 49 41 35 52 45 41 34 59 52 47 42 67 58 47 41 61 54
Rain Showers -- -- -- -- -- -- -- -- -- -- -- Isolated Isolated Scattered Scattered Definite Definite Definite Definite Definite Definite Definite Definite Likely Likely Definite Likely Likely Likely Likely Chance Chance Chance Chance Slight Chance Slight Chance Slight Chance -- -- -- Slight Chance Slight Chance -- -- -- -- -- -- -- Slight Chance Chance Chance Chance Chance
WIND CHILL -- -- -- -- -- -- -- -- -- -- -- -- -- -- -- -- -- -- -- -- -- -- -- -- -- -- -- -- -- -- -- -- -- -- -- -- -- -- 40° 36° -- 42° -- 35° -- -- -- 43° -- -- -- 42° -- --
SPRAY COND
DRY COND
LIVESTOCK COLDSTRESS
LIVESTOCK HEATSTRESS 65.37 64.84 64.93 63.50 63.64 62.12 62.12 62.19 62.19 62.24 58.06 58.05 58.04 60.79 64.35 66.01 66.01 66.84 66.99 68.64 68.64 67.04 66.14 64.42 62.70 60.87 60.88 58.99 58.06 56.17 56.22 54.37 54.40 49.22 54.61 58.95 58.21 50.56 44.91 41.24 53.68 47.28 44.82 39.37 58.94 53.50 48.56 46.37 64.56 58.14 47.71 45.61 60.36 55.11

Click on individual weather variable above in left-hand column (ie., TEMP, RH, QPF 12HR) to view state forecast maps






NWS 48 Hr. Forecast Maps,

Regional Hourly Observations For BOYD County, Kentucky
Issued at 300 PM EDT SUN OCT 22 2017
NORTHEAST KENTUCKY
  
CITY           SKY/WX    TMP DP  RH WIND       PRES   REMARKS
LEXINGTON      PTSUNNY   76  52  43 S16G26    30.15F                  
COVINGTON      PTSUNNY   74  57  55 S14       30.11F                  
FRANKFORT      CLOUDY    74  51  44 S14       30.13F                  


Current NOWCAST not available:
Nowcasts are not issued routinely during fair weather. Only when
precipitation or other significant weather is occuring in this county will these
forecasts be issued. Currently, there is no short term forecast in effect.


Fire Weather Forecast For BOYD County, KY
Provided by the National Weather Service:

Issued at: Sun Oct 22 15:05:01 EDT 2017

Cloud cover           PCldy        Cloudy       MCldy        PCldy        
Precip type           None         Showers      Showers      Showers      
Chance precip (%)     0            100          90           30           
Min/Max TEMP          62           70           49           61           
Max/Min RH %          93           75           96           50           
20ftWnd-val/AM(mph)                Lgt/Var                   Lgt/Var      
20ftWnd-rdg/PM(mph)   Lgt/Var      SE  5        SW  5        W  6         
Precip amount         0.00         0.83         0.62         0.03         
Precip duration                    8            7            2            
Precip begin                       8 AM         Continuing   Continuing   
Precip end                         Continuing   Continuing   6 PM         
Mixing hgt(ft-AGL/MSL)             2660                      5240         
Transport wnd (mph)                SE 12                     W 16         
Vent rate (kt-ft)                  62680                     90140        
Dispersion            VERY POOR                 POOR                      
LAL                   1            1            1            1            
Haines Index          3            3            3            3            
Stability class                                                           

REMARKS...None.

SPC's Fire Weather Web Tool (Excellent!), SPC's Fire Weather Outlooks, NWS Fire Weather WEB, Fire Danger Class Map,
Keetch-Byram Drought Index, ROMAN Web, Haines Index ,
WFAS's 10-hr Dead Fuel Moist., WFAS's 100-hr Dead Fuel Moist., Probablity of Ignition, Visual blackness Map, Palmer Drought Index, HPC's Rainfall Forecast Maps


Hazardous Weather Outlook For BOYD County, Kentucky
240 AM EDT Sun Oct 22 2017

 DAY ONE  Today and Tonight.

No hazardous weather is expected at this time.

 DAYS TWO THROUGH SEVEN  Monday through Saturday.

No hazardous weather is expected at this time.

 SPOTTER INFORMATION STATEMENT  

Spotter activation is not expected at this time.

Latest BOYD County, Kentucky Watches, Warnings and Advisories.
Additional Drought Info.: UKAWC Drought Page, Kentucky Drought Watch


7-Day Forecast For BOYD County, KY

THIS AFTERNOON
Sunny. Highs in the upper 70s. Southeast winds around 5 mph.

TONIGHT
Partly cloudy in the evening, then becoming mostly cloudy. Not as cool with lows in the lower 60s. Southeast winds 5 to 10 mph.

MONDAY
Scattered showers in the morning, then showers in the afternoon. Not as warm with highs around 70. Southeast winds 5 to 10 mph. Chance of rain near 100 percent.

MONDAY NIGHT
Showers, cooler with lows in the upper 40s. Southwest winds 5 to 10 mph. Chance of rain 90 percent.

TUESDAY
Partly sunny. A chance of showers, mainly in the morning. Highs in the lower 60s. Southwest winds 5 to 10 mph. Chance of rain 30 percent.

TUESDAY NIGHT
Mostly cloudy in the evening, then becoming partly cloudy. Lows around 40.

WEDNESDAY
Partly sunny. Highs in the lower 50s.

WEDNESDAY NIGHT
Mostly cloudy in the evening, then becoming partly cloudy. Lows in the upper 30s.

THURSDAY AND THURSDAY NIGHT
Mostly clear. Highs in the lower 60s. Lows around 40.

FRIDAY
Sunny. Highs in the upper 60s.

FRIDAY NIGHT
Partly cloudy in the evening, then mostly cloudy with a chance of showers after midnight. Lows in the mid 40s. Chance of rain 30 percent.

SATURDAY
Partly sunny with a 40 percent chance of showers. Highs in the lower 60s.

Ag Weather Center, Department of Biosystems & Agricultural Engineering, University of Kentucky